Location: Clanezzo
(45.7500°N, 9.6000°E)
Time: 05:10:14
(UTC+00:00)

Gbstr 26 Del rocket - Pass Details

Date: 26 September 2021
Orbit: 492 x 1263 km, 51.8° (Epoch: 20 October)

Event Time Altitude Azimuth Distance (km) Brightness Sun altitude
Exits shadow 01:08:18 26° 105° (ESE) 2,112 5.8 -38.8°
Drops below altitude 10° 01:10:59 10° 109° (ESE) 2,963 6.7 -38.5°
Sets 01:13:31 0° 111° (ESE) 3,824 7.3 -38.3°
